<?xml version='1.0' encoding='UTF-8'?>
<gpx xmlns="http://www.topografix.com/GPX/1/1" creator="www.balnam.be" version="1.1" xmlns:xsi="http://www.w3.org/2001/XMLSchema-instance" xsi:schemaLocation="http://www.topografix.com/GPX/1/1 http://www.topografix.com/GPX/1/1/gpx.xsd">
<trk>
<name>hqgwmi1</name>
<cmt>v</cmt>
<desc>Wasmuel Sentier n°i1 </desc>
<link href="https://chemins.be/wasmuel/sentier/i1"/><trkseg>
<trkpt lat="50.444023" lon="3.849912"><time>2026-05-02T20:42:23Z</time></trkpt>
<trkpt lat="50.444026" lon="3.850489"><time>2026-05-02T20:52:23Z</time></trkpt>
<trkpt lat="50.443495" lon="3.852494"><time>2026-05-02T21:02:23Z</time></trkpt>
</trkseg>
</trk>
<trk>
<name>hqgwmi2</name>
<cmt>v</cmt>
<desc>Wasmuel Sentier n°i2 Sentier du Pied Vert</desc>
<link href="https://chemins.be/wasmuel/sentier/i2"/><trkseg>
<trkpt lat="50.438485" lon="3.847502"><time>2026-05-02T20:42:23Z</time></trkpt>
<trkpt lat="50.438625" lon="3.846762"><time>2026-05-02T20:52:23Z</time></trkpt>
<trkpt lat="50.438714" lon="3.846212"><time>2026-05-02T21:02:23Z</time></trkpt>
<trkpt lat="50.438743" lon="3.846038"><time>2026-05-02T21:12:23Z</time></trkpt>
<trkpt lat="50.439045" lon="3.844172"><time>2026-05-02T21:22:23Z</time></trkpt>
<trkpt lat="50.438755" lon="3.842582"><time>2026-05-02T21:32:23Z</time></trkpt>
<trkpt lat="50.439595" lon="3.841912"><time>2026-05-02T21:42:23Z</time></trkpt>
</trkseg>
</trk>
<trk>
<name>hqgwmi3</name>
<cmt>b</cmt>
<desc>Wasmuel Chemin n°i3 </desc>
<link href="https://chemins.be/wasmuel/chemin/i3"/><trkseg>
<trkpt lat="50.439574" lon="3.841605"><time>2026-05-02T20:42:23Z</time></trkpt>
<trkpt lat="50.441178" lon="3.840138"><time>2026-05-02T20:52:23Z</time></trkpt>
</trkseg></trk>
<trk>
<name>hqgwmi3</name>
<cmt>v</cmt>
<desc>Wasmuel Chemin n°i3 </desc>
<link href="https://chemins.be/wasmuel/chemin/i3"/><trkseg>
<trkpt lat="50.441178" lon="3.840138"><time>2026-05-02T20:52:23Z</time></trkpt>
<trkpt lat="50.441914" lon="3.839416"><time>2026-05-02T21:02:23Z</time></trkpt>
<trkpt lat="50.442488" lon="3.839212"><time>2026-05-02T21:12:23Z</time></trkpt>
<trkpt lat="50.443008" lon="3.839062"><time>2026-05-02T21:22:23Z</time></trkpt>
</trkseg></trk>
<trk>
<name>hqgwmi3</name>
<cmt>s</cmt>
<desc>Wasmuel Chemin n°i3 </desc>
<link href="https://chemins.be/wasmuel/chemin/i3"/><trkseg>
<trkpt lat="50.443008" lon="3.839062"><time>2026-05-02T21:22:23Z</time></trkpt>
<trkpt lat="50.444053" lon="3.839035"><time>2026-05-02T21:32:23Z</time></trkpt>
<trkpt lat="50.444723" lon="3.838552"><time>2026-05-02T21:42:23Z</time></trkpt>
<trkpt lat="50.445181" lon="3.837469"><time>2026-05-02T21:52:23Z</time></trkpt>
<trkpt lat="50.445304" lon="3.836803"><time>2026-05-02T22:02:23Z</time></trkpt>
<trkpt lat="50.445228" lon="3.836095"><time>2026-05-02T22:12:23Z</time></trkpt>
<trkpt lat="50.445223" lon="3.835435"><time>2026-05-02T22:22:23Z</time></trkpt>
<trkpt lat="50.445201" lon="3.832598"><time>2026-05-02T22:32:23Z</time></trkpt>
</trkseg>
</trk>
<trk>
<name>hqgwmi4</name>
<cmt>s</cmt>
<desc>Wasmuel Chemin n°i4 </desc>
<link href="https://chemins.be/wasmuel/chemin/i4"/><trkseg>
<trkpt lat="50.441275" lon="3.849686"><time>2026-05-02T20:42:23Z</time></trkpt>
<trkpt lat="50.438086" lon="3.849368"><time>2026-05-02T20:52:23Z</time></trkpt>
<trkpt lat="50.437448" lon="3.849305"><time>2026-05-02T21:02:23Z</time></trkpt>
<trkpt lat="50.437218" lon="3.848637"><time>2026-05-02T21:12:23Z</time></trkpt>
<trkpt lat="50.436853" lon="3.847264"><time>2026-05-02T21:22:23Z</time></trkpt>
</trkseg>
</trk>
<trk>
<name>hqgwmi5</name>
<cmt>v</cmt>
<desc>Wasmuel Sentier n°i5 </desc>
<link href="https://chemins.be/wasmuel/sentier/i5"/><trkseg>
<trkpt lat="50.437583" lon="3.848105"><time>2026-05-02T20:42:23Z</time></trkpt>
<trkpt lat="50.437731" lon="3.847504"><time>2026-05-02T20:52:23Z</time></trkpt>
</trkseg>
</trk>
<trk>
<name>hqgwmL98C</name>
<cmt>v</cmt>
<desc>Wasmuel Chemin n°L98C </desc>
<link href="https://chemins.be/wasmuel/chemin/L98C"/><trkseg>
<trkpt lat="50.434139" lon="3.846974"><time>2026-05-02T20:42:23Z</time></trkpt>
<trkpt lat="50.436330" lon="3.844861"><time>2026-05-02T20:52:23Z</time></trkpt>
</trkseg></trk>
<trk>
<name>hqgwmL98C</name>
<cmt>b</cmt>
<desc>Wasmuel Chemin n°L98C </desc>
<link href="https://chemins.be/wasmuel/chemin/L98C"/><trkseg>
<trkpt lat="50.436330" lon="3.844861"><time>2026-05-02T20:52:23Z</time></trkpt>
<trkpt lat="50.438735" lon="3.842492"><time>2026-05-02T21:02:23Z</time></trkpt>
<trkpt lat="50.439559" lon="3.841677"><time>2026-05-02T21:12:23Z</time></trkpt>
</trkseg>
</trk>
</gpx>